sat.trackr.live / text

‹ back to catalog

FENGYUN 4A

NORAD 41882 · 2016-077A

PAYLOAD ACTIVE UNKNOWN

§ Identity

Operator
Country
PRC
Launch date
2016-12-10
Launch site
XICLF
Launch vehicle
Mass (kg)
RCS (m²)
22.59

Purposes: comms, earth_obs

External: N2YO · Heavens-Above · Gunter

§ Orbital elements

Epoch: 2026-09-09T23:11:35.615616Z

Period
1,436.17 min
Inclination
2.5312°
Eccentricity
0.0008342
Mean motion
1.00266477 rev/d
Perigee alt
35,752.9 km
Apogee alt
35,823.3 km
Semi-major
42,166.2 km
B*
0.0000e+0
RAAN
79.1952°
Arg perigee
166.9320°
Mean anomaly
213.9867°
Rev number
3,578

§ Raw data

FENGYUN 4A1 41882U 16077A   26252.96638444 -.00000377  00000+0  00000+0 0  99912 41882   2.5312  79.1952 0008342 166.9320 213.9867  1.00266477 35787

JSON: /api/v1/satellites/41882 · /tle

For live sub-satellite position, see the globe view (requires WebGL).

§ Visibility from observer

Set your observer location to see the next 7 days of passes ≥ 10°. The values pass through the URL so the page stays shareable.

No JS? Fill the form by hand. The geolocation button needs JavaScript.